AAL1922 KMIA-KJFK

Flight info

Callsign AAL1922
Flight time 2h 16m
Altitude 37000
Route FOLZZ3 ALYRA PELCN Y309 FLRDA SAGGY CHIEZ Q161 KALDA Q108 SIE CAMRN5
Aircraft B772/H-SDE2E3FGHIJ5LORVWXY/LB1D1

Departure

Time 2026-05-05 03:53
Airport Miami International Airport (KMIA)

Arrival

Time 2026-05-05 06:09
Airport John F. Kennedy International Airport (KJFK)
Time Latitude Longitude Altitude Speed Heading
2026-05-05 03:07 25.79563 -80.28208 21 ft 0 kts 146°
2026-05-05 03:27 25.79574 -80.28216 19 ft 4 kts 146°
2026-05-05 03:27 25.79596 -80.28233 21 ft 4 kts 146°
2026-05-05 03:27 25.79616 -80.28246 21 ft 4 kts 167°
2026-05-05 03:28 25.79638 -80.28243 22 ft 4 kts 226°
2026-05-05 03:28 25.79647 -80.28220 23 ft 4 kts 282°
2026-05-05 03:28 25.79639 -80.28191 23 ft 4 kts 287°
2026-05-05 03:28 25.79637 -80.28183 24 ft 0 kts 287°
2026-05-05 03:31 25.79640 -80.28191 23 ft 6 kts 288°
2026-05-05 03:31 25.79660 -80.28244 25 ft 8 kts 295°
2026-05-05 03:31 25.79674 -80.28299 20 ft 8 kts 274°
2026-05-05 03:32 25.79672 -80.28389 19 ft 17 kts 268°
2026-05-05 03:32 25.79665 -80.28507 19 ft 13 kts 262°
2026-05-05 03:32 25.79625 -80.28583 19 ft 12 kts 220°
2026-05-05 03:32 25.79585 -80.28674 19 ft 16 kts 255°
2026-05-05 03:33 25.79566 -80.28781 19 ft 14 kts 268°
2026-05-05 03:33 25.79573 -80.28883 19 ft 12 kts 301°
2026-05-05 03:33 25.79653 -80.28903 19 ft 12 kts 358°
2026-05-05 03:33 25.79728 -80.28931 19 ft 12 kts 307°
2026-05-05 03:34 25.79752 -80.29015 20 ft 9 kts 269°
2026-05-05 03:34 25.79751 -80.29040 20 ft 0 kts 268°
2026-05-05 03:42 25.79751 -80.29042 20 ft 3 kts 268°
2026-05-05 03:43 25.79763 -80.29083 20 ft 8 kts 319°
2026-05-05 03:43 25.79840 -80.29096 20 ft 12 kts 356°
2026-05-05 03:43 25.79906 -80.29115 20 ft 9 kts 314°
2026-05-05 03:43 25.79918 -80.29182 20 ft 9 kts 266°
2026-05-05 03:44 25.79915 -80.29252 20 ft 9 kts 267°
2026-05-05 03:44 25.79912 -80.29324 20 ft 11 kts 267°
2026-05-05 03:44 25.79908 -80.29414 19 ft 12 kts 267°
2026-05-05 03:44 25.79905 -80.29503 19 ft 12 kts 267°
2026-05-05 03:45 25.79901 -80.29592 19 ft 12 kts 267°
2026-05-05 03:45 25.79900 -80.29677 19 ft 10 kts 272°
2026-05-05 03:45 25.79906 -80.29739 19 ft 6 kts 280°
2026-05-05 03:45 25.79913 -80.29772 19 ft 0 kts 284°
2026-05-05 03:46 25.79921 -80.29798 21 ft 5 kts 289°
2026-05-05 03:47 25.79933 -80.29831 19 ft 2 kts 294°
2026-05-05 03:47 25.79935 -80.29836 19 ft 0 kts 294°
2026-05-05 03:48 25.79950 -80.29874 18 ft 9 kts 292°
2026-05-05 03:48 25.79965 -80.29924 18 ft 5 kts 287°
2026-05-05 03:48 25.79967 -80.29931 18 ft 0 kts 287°
2026-05-05 03:50 25.79977 -80.29967 18 ft 14 kts 287°
2026-05-05 03:50 25.80004 -80.30068 18 ft 13 kts 286°
2026-05-05 03:50 25.80050 -80.30118 19 ft 7 kts 359°
2026-05-05 03:51 25.80073 -80.30079 18 ft 6 kts 86°
2026-05-05 03:51 25.80073 -80.30069 18 ft 0 kts 88°
2026-05-05 03:52 25.80076 -80.30017 17 ft 25 kts 87°
2026-05-05 03:52 25.80096 -80.29523 18 ft 105 kts 88°
2026-05-05 03:52 25.80137 -80.28459 170 ft 157 kts 85°
2026-05-05 03:53 25.80211 -80.27249 1000 ft 157 kts 84°
2026-05-05 03:53 25.80300 -80.26066 2011 ft 153 kts 89°
2026-05-05 03:53 25.80006 -80.24862 2313 ft 177 kts 117°
2026-05-05 03:53 25.79377 -80.23613 2778 ft 197 kts 117°
2026-05-05 03:54 25.78707 -80.22186 3080 ft 226 kts 117°
2026-05-05 03:54 25.77938 -80.20513 3476 ft 250 kts 116°
2026-05-05 03:54 25.77140 -80.18760 4130 ft 265 kts 116°
2026-05-05 03:54 25.76276 -80.16904 4890 ft 275 kts 119°
2026-05-05 03:55 25.75342 -80.15023 5702 ft 283 kts 121°
2026-05-05 03:55 25.74439 -80.13039 6471 ft 285 kts 109°
2026-05-05 03:55 25.74296 -80.10855 7138 ft 295 kts 77°
2026-05-05 03:55 25.75176 -80.08818 7946 ft 295 kts 51°
2026-05-05 03:56 25.76544 -80.07045 8571 ft 303 kts 47°
2026-05-05 03:56 25.77933 -80.05293 9328 ft 309 kts 47°
2026-05-05 03:56 25.79366 -80.03496 10128 ft 314 kts 47°
2026-05-05 03:56 25.80854 -80.01634 10525 ft 335 kts 46°
2026-05-05 03:57 25.82463 -79.99618 10725 ft 363 kts 47°
2026-05-05 03:57 25.84171 -79.97466 11300 ft 378 kts 47°
2026-05-05 03:57 25.85926 -79.95246 12090 ft 387 kts 47°
2026-05-05 03:57 25.87715 -79.92975 13035 ft 393 kts 46°
2026-05-05 03:58 25.89528 -79.90670 13982 ft 400 kts 46°
2026-05-05 03:58 25.91371 -79.88324 14893 ft 404 kts 46°
2026-05-05 03:58 25.93222 -79.85966 15858 ft 408 kts 46°
2026-05-05 03:58 25.95103 -79.83570 16716 ft 415 kts 45°
2026-05-05 03:59 25.97019 -79.81129 17537 ft 423 kts 45°
2026-05-05 03:59 25.98968 -79.78644 18390 ft 430 kts 45°
2026-05-05 03:59 26.00946 -79.76119 19157 ft 436 kts 45°
2026-05-05 03:59 26.02949 -79.73561 20003 ft 441 kts 45°
2026-05-05 04:00 26.04972 -79.70974 20819 ft 446 kts 45°
2026-05-05 04:00 26.07019 -79.68357 21650 ft 451 kts 44°
2026-05-05 04:00 26.09092 -79.65705 22441 ft 457 kts 44°
2026-05-05 04:00 26.11178 -79.63011 23209 ft 464 kts 46°
2026-05-05 04:01 26.13148 -79.60127 23924 ft 472 kts 50°
2026-05-05 04:01 26.15021 -79.57111 24623 ft 476 kts 51°
2026-05-05 04:01 26.16877 -79.54051 25351 ft 478 kts 51°
2026-05-05 04:01 26.18752 -79.50986 26076 ft 481 kts 51°
2026-05-05 04:02 26.20664 -79.47918 26706 ft 484 kts 50°
2026-05-05 04:02 26.22610 -79.44836 27297 ft 488 kts 50°
2026-05-05 04:02 26.24580 -79.41734 27865 ft 493 kts 50°
2026-05-05 04:02 26.26569 -79.38600 28365 ft 498 kts 50°
2026-05-05 04:03 26.28618 -79.35489 28846 ft 497 kts 44°
2026-05-05 04:03 26.31141 -79.32936 29280 ft 483 kts 27°
2026-05-05 04:03 26.34004 -79.30969 29672 ft 485 kts 24°
2026-05-05 04:03 26.36911 -79.29027 30132 ft 489 kts 24°
2026-05-05 04:04 26.39826 -79.27054 30578 ft 491 kts 25°
2026-05-05 04:04 26.42735 -79.25046 31053 ft 493 kts 25°
2026-05-05 04:04 26.44660 -79.23697 31340 ft 494 kts 25°
2026-05-05 04:04 26.48521 -79.20962 31830 ft 499 kts 25°
2026-05-05 04:05 26.51455 -79.18868 32120 ft 502 kts 25°
2026-05-05 04:05 26.54403 -79.16756 32456 ft 504 kts 25°
2026-05-05 04:05 26.57357 -79.14637 32793 ft 505 kts 25°
2026-05-05 04:05 26.60314 -79.12516 33191 ft 505 kts 25°
2026-05-05 04:06 26.63262 -79.10399 33668 ft 502 kts 25°
2026-05-05 04:06 26.65243 -79.08977 34030 ft 500 kts 25°
2026-05-05 04:06 26.68164 -79.06881 34469 ft 498 kts 25°
2026-05-05 04:06 26.71083 -79.04789 34771 ft 500 kts 25°
2026-05-05 04:07 26.74025 -79.02683 34981 ft 504 kts 25°
2026-05-05 04:07 26.76983 -79.00564 35290 ft 505 kts 25°
2026-05-05 04:07 26.79940 -78.98441 35650 ft 505 kts 24°
2026-05-05 04:07 26.82891 -78.96318 36058 ft 503 kts 24°
2026-05-05 04:08 26.85836 -78.94197 36432 ft 503 kts 24°
2026-05-05 04:08 26.88735 -78.92110 36791 ft 502 kts 24°
2026-05-05 04:08 26.91677 -78.89992 37018 ft 505 kts 24°
2026-05-05 04:08 26.94645 -78.87857 37056 ft 508 kts 24°
2026-05-05 04:09 27.00561 -78.83587 37052 ft 502 kts 24°
2026-05-05 04:09 27.06466 -78.79319 37074 ft 503 kts 24°
2026-05-05 04:10 27.12353 -78.75066 37079 ft 504 kts 24°
2026-05-05 04:10 27.18246 -78.70798 37069 ft 504 kts 24°
2026-05-05 04:11 27.24102 -78.66552 37047 ft 505 kts 24°
2026-05-05 04:11 27.30234 -78.62949 37064 ft 478 kts
2026-05-05 04:12 27.33409 -78.62492 37082 ft 462 kts 355°
2026-05-05 04:12 27.36668 -78.62188 37072 ft 466 kts 356°
2026-05-05 04:12 27.43133 -78.61451 37084 ft 473 kts 357°
2026-05-05 04:13 27.49741 -78.60604 37080 ft 476 kts 357°
2026-05-05 04:13 27.56318 -78.59736 37074 ft 475 kts 357°
2026-05-05 04:14 27.62834 -78.58880 37089 ft 475 kts 357°
2026-05-05 04:14 27.69395 -78.58025 37077 ft 474 kts 357°
2026-05-05 04:15 27.75947 -78.57172 37081 ft 474 kts 357°
2026-05-05 04:15 27.82488 -78.56320 37081 ft 473 kts 357°
2026-05-05 04:16 27.89027 -78.55467 37082 ft 473 kts 357°
2026-05-05 04:16 27.95590 -78.54611 37090 ft 475 kts 358°
2026-05-05 04:17 28.02166 -78.53750 37083 ft 476 kts 358°
2026-05-05 04:17 28.08754 -78.52886 37085 ft 477 kts 358°
2026-05-05 04:18 28.15349 -78.52020 37087 ft 477 kts 358°
2026-05-05 04:18 28.21952 -78.51153 37096 ft 479 kts 358°
2026-05-05 04:19 28.28576 -78.50283 37092 ft 480 kts 358°
2026-05-05 04:19 28.35212 -78.49409 37089 ft 480 kts 358°
2026-05-05 04:20 28.41849 -78.48533 37093 ft 480 kts 358°
2026-05-05 04:20 28.48489 -78.47656 37113 ft 481 kts 358°
2026-05-05 04:21 28.55147 -78.46777 37103 ft 482 kts 358°
2026-05-05 04:21 28.61814 -78.45894 37096 ft 483 kts 358°
2026-05-05 04:22 28.68486 -78.45010 37099 ft 483 kts 358°
2026-05-05 04:22 28.75116 -78.44129 37118 ft 483 kts 358°
2026-05-05 04:23 28.81810 -78.43241 37105 ft 485 kts 359°
2026-05-05 04:23 28.88517 -78.42348 37101 ft 486 kts 359°
2026-05-05 04:24 28.95228 -78.41454 37103 ft 486 kts 359°
2026-05-05 04:25 29.05301 -78.40109 37145 ft 486 kts 359°
2026-05-05 04:25 29.12038 -78.39210 37114 ft 488 kts 359°
2026-05-05 04:26 29.18780 -78.38307 37106 ft 488 kts 359°
2026-05-05 04:26 29.25522 -78.37403 37111 ft 488 kts 359°
2026-05-05 04:27 29.32267 -78.36497 37146 ft 488 kts 359°
2026-05-05 04:27 29.39020 -78.35590 37118 ft 489 kts 359°
2026-05-05 04:28 29.45772 -78.34681 37110 ft 489 kts 359°
2026-05-05 04:28 29.52477 -78.34254 37127 ft 476 kts 349°
2026-05-05 04:29 29.59057 -78.34864 37112 ft 474 kts 346°
2026-05-05 04:29 29.65645 -78.35522 37127 ft 476 kts 347°
2026-05-05 04:30 29.72267 -78.36059 37119 ft 478 kts 348°
2026-05-05 04:30 29.78906 -78.36543 37117 ft 478 kts 348°
2026-05-05 04:31 29.85539 -78.37025 37118 ft 477 kts 348°
2026-05-05 04:31 29.92169 -78.37514 37133 ft 478 kts 348°
2026-05-05 04:32 29.98811 -78.38008 37114 ft 478 kts 348°
2026-05-05 04:32 30.05441 -78.38500 37121 ft 477 kts 348°
2026-05-05 04:33 30.12025 -78.38959 37121 ft 479 kts 350°
2026-05-05 04:33 30.18754 -78.38438 37133 ft 490 kts 360°
2026-05-05 04:34 30.25514 -78.37324 37128 ft 491 kts
2026-05-05 04:34 30.32280 -78.36254 37119 ft 490 kts 359°
2026-05-05 04:35 30.39048 -78.35232 37127 ft 491 kts 359°
2026-05-05 04:35 30.45815 -78.33982 37165 ft 494 kts
2026-05-05 04:36 30.52545 -78.32394 37129 ft 492 kts
2026-05-05 04:36 30.59233 -78.30797 37125 ft 489 kts
2026-05-05 04:37 30.65897 -78.29241 37128 ft 488 kts
2026-05-05 04:37 30.72548 -78.27701 37178 ft 488 kts
2026-05-05 04:38 30.79217 -78.26154 37137 ft 489 kts
2026-05-05 04:38 30.85895 -78.24598 37131 ft 490 kts
2026-05-05 04:39 30.92580 -78.23039 37130 ft 490 kts
2026-05-05 04:39 30.99270 -78.21517 37173 ft 490 kts
2026-05-05 04:40 31.05975 -78.20037 37136 ft 490 kts
2026-05-05 04:40 31.12680 -78.18550 37130 ft 490 kts
2026-05-05 04:41 31.19380 -78.17054 37134 ft 490 kts
2026-05-05 04:41 31.26029 -78.15564 37170 ft 490 kts
2026-05-05 04:42 31.32732 -78.14062 37133 ft 490 kts
2026-05-05 04:42 31.39426 -78.12559 37133 ft 490 kts
2026-05-05 04:43 31.46113 -78.11118 37136 ft 487 kts
2026-05-05 04:43 31.52810 -78.09986 37183 ft 486 kts
2026-05-05 04:44 31.59511 -78.08913 37136 ft 486 kts
2026-05-05 04:44 31.66208 -78.07799 37130 ft 486 kts
2026-05-05 04:45 31.72898 -78.06655 37140 ft 486 kts
2026-05-05 04:45 31.79582 -78.05503 37157 ft 486 kts
2026-05-05 04:46 31.86272 -78.04349 37139 ft 486 kts
2026-05-05 04:46 31.92964 -78.03195 37126 ft 486 kts
2026-05-05 04:47 31.99654 -78.02039 37125 ft 486 kts
2026-05-05 04:47 32.06337 -78.00884 37162 ft 486 kts
2026-05-05 04:48 32.13036 -77.99725 37132 ft 486 kts
2026-05-05 04:48 32.19725 -77.98564 37130 ft 486 kts
2026-05-05 04:49 32.26412 -77.97402 37135 ft 486 kts
2026-05-05 04:49 32.33051 -77.96247 37146 ft 485 kts
2026-05-05 04:50 32.39740 -77.95083 37127 ft 486 kts
2026-05-05 04:50 32.46441 -77.93915 37138 ft 487 kts
2026-05-05 04:51 32.53159 -77.92740 37132 ft 488 kts
2026-05-05 04:51 32.59886 -77.91563 37144 ft 489 kts
2026-05-05 04:52 32.66614 -77.90383 37129 ft 488 kts
2026-05-05 04:52 32.73330 -77.89203 37126 ft 488 kts
2026-05-05 04:53 32.78909 -77.88223 37128 ft 487 kts
2026-05-05 04:53 32.85608 -77.87044 37128 ft 487 kts
2026-05-05 04:54 32.92308 -77.85863 37128 ft 486 kts
2026-05-05 04:54 32.99002 -77.84681 37128 ft 486 kts
2026-05-05 04:55 33.05697 -77.83497 37126 ft 487 kts
2026-05-05 04:55 33.12396 -77.82311 37132 ft 487 kts
2026-05-05 04:56 33.19097 -77.81122 37123 ft 487 kts
2026-05-05 04:56 33.25788 -77.79933 37128 ft 486 kts
2026-05-05 04:57 33.32477 -77.78743 37127 ft 486 kts
2026-05-05 04:57 33.39165 -77.77551 37131 ft 486 kts
2026-05-05 04:58 33.45850 -77.76358 37115 ft 486 kts
2026-05-05 04:58 33.52532 -77.75163 37120 ft 485 kts
2026-05-05 04:59 33.59206 -77.73968 37123 ft 485 kts
2026-05-05 04:59 33.65884 -77.72770 37120 ft 485 kts
2026-05-05 05:00 33.72548 -77.71498 37119 ft 485 kts
2026-05-05 05:00 33.79198 -77.70024 37120 ft 486 kts
2026-05-05 05:01 33.85838 -77.68534 37145 ft 485 kts
2026-05-05 05:01 33.92481 -77.67067 37115 ft 485 kts
2026-05-05 05:02 33.99114 -77.65615 37115 ft 484 kts
2026-05-05 05:02 34.05696 -77.64174 37113 ft 484 kts
2026-05-05 05:03 34.12314 -77.62722 37134 ft 483 kts
2026-05-05 05:03 34.18928 -77.61267 37118 ft 483 kts
2026-05-05 05:04 34.25538 -77.59810 37111 ft 482 kts
2026-05-05 05:04 34.32141 -77.58354 37109 ft 482 kts
2026-05-05 05:05 34.38753 -77.56892 37128 ft 483 kts
2026-05-05 05:05 34.45359 -77.55429 37113 ft 483 kts
2026-05-05 05:06 34.51923 -77.53597 37108 ft 488 kts 13°
2026-05-05 05:06 34.58196 -77.50347 37109 ft 493 kts 22°
2026-05-05 05:07 34.64323 -77.46609 37121 ft 493 kts 22°
2026-05-05 05:07 34.70456 -77.42872 37111 ft 493 kts 22°
2026-05-05 05:08 34.76602 -77.39170 37109 ft 493 kts 21°
2026-05-05 05:08 34.82768 -77.35473 37124 ft 498 kts 21°
2026-05-05 05:09 34.89047 -77.31705 37110 ft 507 kts 21°
2026-05-05 05:09 34.95349 -77.27907 37110 ft 504 kts 22°
2026-05-05 05:10 35.01633 -77.24112 37117 ft 503 kts 22°
2026-05-05 05:10 35.07903 -77.20320 37132 ft 503 kts 21°
2026-05-05 05:11 35.14180 -77.16521 37123 ft 503 kts 21°
2026-05-05 05:11 35.20454 -77.12716 37100 ft 504 kts 21°
2026-05-05 05:12 35.26731 -77.08902 37099 ft 504 kts 21°
2026-05-05 05:12 35.33007 -77.05082 37105 ft 504 kts 21°
2026-05-05 05:13 35.39279 -77.01258 37108 ft 504 kts 22°
2026-05-05 05:13 35.45510 -76.97451 37108 ft 504 kts 22°
2026-05-05 05:14 35.51780 -76.93614 37107 ft 504 kts 22°
2026-05-05 05:14 35.58051 -76.89771 37112 ft 504 kts 22°
2026-05-05 05:15 35.64325 -76.85946 37081 ft 503 kts 21°
2026-05-05 05:15 35.70602 -76.82130 37087 ft 503 kts 21°
2026-05-05 05:16 35.76882 -76.78301 37097 ft 504 kts 21°
2026-05-05 05:16 35.83165 -76.74457 37080 ft 504 kts 21°
2026-05-05 05:17 35.89446 -76.70609 37095 ft 504 kts 21°
2026-05-05 05:17 35.95679 -76.66619 37099 ft 505 kts 24°
2026-05-05 05:18 36.01832 -76.62411 37119 ft 506 kts 24°
2026-05-05 05:18 36.07975 -76.58196 37100 ft 505 kts 24°
2026-05-05 05:19 36.14123 -76.54016 37098 ft 504 kts 24°
2026-05-05 05:19 36.20267 -76.49852 37086 ft 503 kts 24°
2026-05-05 05:20 36.26412 -76.45682 37081 ft 504 kts 24°
2026-05-05 05:20 36.32568 -76.41495 37073 ft 504 kts 24°
2026-05-05 05:21 36.38717 -76.37303 37073 ft 505 kts 24°
2026-05-05 05:21 36.44870 -76.33099 37101 ft 505 kts 24°
2026-05-05 05:22 36.50975 -76.28922 37077 ft 504 kts 24°
2026-05-05 05:22 36.57109 -76.24717 37063 ft 503 kts 24°
2026-05-05 05:23 36.63224 -76.20516 37063 ft 502 kts 24°
2026-05-05 05:23 36.69334 -76.16313 37076 ft 501 kts 24°
2026-05-05 05:24 36.75440 -76.12105 37056 ft 501 kts 25°
2026-05-05 05:24 36.81542 -76.07891 37047 ft 501 kts 25°
2026-05-05 05:25 36.87648 -76.03667 37054 ft 502 kts 25°
2026-05-05 05:25 36.93750 -75.99437 37045 ft 501 kts 25°
2026-05-05 05:26 36.99832 -75.95212 37044 ft 499 kts 25°
2026-05-05 05:26 37.05899 -75.91000 37044 ft 498 kts 24°
2026-05-05 05:27 37.12215 -75.87628 37045 ft 490 kts 12°
2026-05-05 05:27 37.22059 -75.84289 37030 ft 488 kts 10°
2026-05-05 05:28 37.28623 -75.82063 37025 ft 489 kts 11°
2026-05-05 05:28 37.35181 -75.79791 37037 ft 489 kts 11°
2026-05-05 05:29 37.41741 -75.77501 37023 ft 489 kts 11°
2026-05-05 05:29 37.48252 -75.75225 37025 ft 489 kts 11°
2026-05-05 05:30 37.54800 -75.72935 37027 ft 488 kts 11°
2026-05-05 05:30 37.61352 -75.70640 37028 ft 488 kts 11°
2026-05-05 05:31 37.67896 -75.68343 37028 ft 488 kts 11°
2026-05-05 05:31 37.74444 -75.66040 37025 ft 488 kts 11°
2026-05-05 05:32 37.80981 -75.63660 37011 ft 491 kts 15°
2026-05-05 05:32 37.87225 -75.60028 37016 ft 498 kts 26°
2026-05-05 05:33 37.92996 -75.55115 37023 ft 501 kts 32°
2026-05-05 05:33 37.98709 -75.50035 36994 ft 501 kts 31°
2026-05-05 05:34 38.04461 -75.45026 36998 ft 502 kts 31°
2026-05-05 05:34 38.10291 -75.40156 36993 ft 502 kts 29°
2026-05-05 05:35 38.16189 -75.35408 37000 ft 502 kts 29°
2026-05-05 05:35 38.22103 -75.30709 37006 ft 499 kts 24°
2026-05-05 05:36 38.28501 -75.27483 37011 ft 492 kts 12°
2026-05-05 05:36 38.35181 -75.25896 37014 ft 487 kts
2026-05-05 05:37 38.41885 -75.24626 37023 ft 488 kts
2026-05-05 05:37 38.48590 -75.23243 37002 ft 487 kts
2026-05-05 05:38 38.55273 -75.21815 36988 ft 487 kts
2026-05-05 05:38 38.61951 -75.20385 36985 ft 486 kts
2026-05-05 05:39 38.68570 -75.18542 36977 ft 491 kts 17°
2026-05-05 05:39 38.74684 -75.14548 36979 ft 498 kts 33°
2026-05-05 05:40 38.79262 -75.10054 36985 ft 500 kts 35°
2026-05-05 05:40 38.84717 -75.04552 36966 ft 494 kts 35°
2026-05-05 05:41 38.90109 -74.99203 36977 ft 487 kts 34°
2026-05-05 05:41 38.95501 -74.93908 36971 ft 489 kts 34°
2026-05-05 05:42 39.00907 -74.88590 36976 ft 490 kts 34°
2026-05-05 05:42 39.06309 -74.83257 36982 ft 490 kts 34°
2026-05-05 05:43 39.11692 -74.77878 36971 ft 490 kts 36°
2026-05-05 05:43 39.16907 -74.72232 36975 ft 490 kts 38°
2026-05-05 05:44 39.22054 -74.66572 36965 ft 489 kts 37°
2026-05-05 05:44 39.27251 -74.60914 36967 ft 489 kts 37°
2026-05-05 05:45 39.32455 -74.55268 36966 ft 488 kts 37°
2026-05-05 05:45 39.37652 -74.49615 36972 ft 488 kts 37°
2026-05-05 05:46 39.42827 -74.43972 36973 ft 480 kts 37°
2026-05-05 05:46 39.47844 -74.38492 36964 ft 469 kts 37°
2026-05-05 05:47 39.52869 -74.32998 36746 ft 468 kts 37°
2026-05-05 05:47 39.55339 -74.30292 36136 ft 466 kts 37°
2026-05-05 05:47 39.57812 -74.27582 35254 ft 471 kts 38°
2026-05-05 05:48 39.60325 -74.24824 34372 ft 476 kts 38°
2026-05-05 05:48 39.62815 -74.22086 32981 ft 465 kts 38°
2026-05-05 05:48 39.65300 -74.19353 31032 ft 477 kts 39°
2026-05-05 05:48 39.67763 -74.16644 30634 ft 467 kts 39°
2026-05-05 05:49 39.70255 -74.13899 30049 ft 463 kts 39°
2026-05-05 05:49 39.72705 -74.11193 29305 ft 459 kts 39°
2026-05-05 05:49 39.75122 -74.08521 28616 ft 453 kts 39°
2026-05-05 05:49 39.77512 -74.05879 27949 ft 449 kts 39°
2026-05-05 05:50 39.79847 -74.03298 27301 ft 444 kts 39°
2026-05-05 05:50 39.82222 -74.00669 26605 ft 441 kts 39°
2026-05-05 05:50 39.84573 -73.98139 25937 ft 435 kts 35°
2026-05-05 05:50 39.87096 -73.96079 25301 ft 433 kts 27°
2026-05-05 05:51 39.89772 -73.94283 24645 ft 433 kts 24°
2026-05-05 05:51 39.92520 -73.92513 23992 ft 436 kts 25°
2026-05-05 05:51 39.95223 -73.90712 23273 ft 437 kts 26°
2026-05-05 05:51 39.97900 -73.88847 22506 ft 435 kts 26°
2026-05-05 05:52 40.00508 -73.86992 21851 ft 431 kts 26°
2026-05-05 05:52 40.03078 -73.85020 21172 ft 427 kts 32°
2026-05-05 05:52 40.05450 -73.82709 20527 ft 425 kts 37°
2026-05-05 05:52 40.07731 -73.80273 19889 ft 422 kts 38°
2026-05-05 05:53 40.10006 -73.77868 19271 ft 419 kts 36°
2026-05-05 05:53 40.12296 -73.75534 18637 ft 417 kts 36°
2026-05-05 05:53 40.14593 -73.73235 17963 ft 415 kts 35°
2026-05-05 05:53 40.16876 -73.70955 17307 ft 412 kts 36°
2026-05-05 05:54 40.19140 -73.68688 16691 ft 408 kts 35°
2026-05-05 05:54 40.21381 -73.66439 16082 ft 404 kts 35°
2026-05-05 05:54 40.23603 -73.64206 15479 ft 401 kts 35°
2026-05-05 05:54 40.25812 -73.61985 14884 ft 399 kts 35°
2026-05-05 05:55 40.28002 -73.59779 14305 ft 396 kts 34°
2026-05-05 05:55 40.30181 -73.57584 13716 ft 394 kts 35°
2026-05-05 05:55 40.32365 -73.55504 13038 ft 381 kts 27°
2026-05-05 05:55 40.34798 -73.54332 12461 ft 365 kts
2026-05-05 05:56 40.37287 -73.53853 11915 ft 363 kts
2026-05-05 05:56 40.39793 -73.53298 11356 ft 366 kts
2026-05-05 05:56 40.42293 -73.52695 10781 ft 364 kts
2026-05-05 05:56 40.44739 -73.52082 10580 ft 351 kts
2026-05-05 05:57 40.46977 -73.51373 10393 ft 312 kts 11°
2026-05-05 05:57 40.49006 -73.50651 10281 ft 298 kts 11°
2026-05-05 05:57 40.50975 -73.49947 10159 ft 290 kts 11°
2026-05-05 05:57 40.52908 -73.49262 10051 ft 286 kts 11°
2026-05-05 05:58 40.54836 -73.48587 9799 ft 289 kts 11°
2026-05-05 05:58 40.56775 -73.47912 9440 ft 289 kts 11°
2026-05-05 05:58 40.58718 -73.47237 9098 ft 288 kts 10°
2026-05-05 05:58 40.60655 -73.46565 8748 ft 287 kts 10°
2026-05-05 05:59 40.62582 -73.45897 8405 ft 285 kts 10°
2026-05-05 05:59 40.64456 -73.45245 8055 ft 273 kts 10°
2026-05-05 05:59 40.66296 -73.44608 7744 ft 272 kts 10°
2026-05-05 05:59 40.68121 -73.43977 7434 ft 271 kts 10°
2026-05-05 06:00 40.69939 -73.43347 7114 ft 270 kts
2026-05-05 06:00 40.71752 -73.42718 6802 ft 269 kts
2026-05-05 06:00 40.73557 -73.42092 6488 ft 268 kts
2026-05-05 06:00 40.75175 -73.41715 6177 ft 253 kts 351°
2026-05-05 06:01 40.76814 -73.42370 5872 ft 245 kts 321°
2026-05-05 06:01 40.78053 -73.43827 5553 ft 238 kts 302°
2026-05-05 06:01 40.78961 -73.45619 5252 ft 234 kts 295°
2026-05-05 06:01 40.79789 -73.47447 4928 ft 227 kts 295°
2026-05-05 06:02 40.80580 -73.49186 4616 ft 218 kts 294°
2026-05-05 06:02 40.81373 -73.50926 4328 ft 218 kts 294°
2026-05-05 06:02 40.82036 -73.52654 4076 ft 202 kts 278°
2026-05-05 06:02 40.82063 -73.54403 3888 ft 191 kts 258°
2026-05-05 06:03 40.81707 -73.56113 3717 ft 191 kts 249°
2026-05-05 06:03 40.81278 -73.57745 3536 ft 185 kts 248°
2026-05-05 06:03 40.80864 -73.59299 3376 ft 180 kts 248°
2026-05-05 06:03 40.80452 -73.60851 3208 ft 176 kts 248°
2026-05-05 06:04 40.80012 -73.62360 3079 ft 175 kts 239°
2026-05-05 06:04 40.79153 -73.63474 2916 ft 179 kts 220°
2026-05-05 06:04 40.78163 -73.64472 2731 ft 177 kts 220°
2026-05-05 06:04 40.77189 -73.65441 2596 ft 174 kts 218°
2026-05-05 06:05 40.76159 -73.66334 2418 ft 175 kts 216°
2026-05-05 06:05 40.75143 -73.67147 2235 ft 169 kts 215°
2026-05-05 06:05 40.74173 -73.67912 2067 ft 156 kts 214°
2026-05-05 06:05 40.73260 -73.68629 1908 ft 150 kts 214°
2026-05-05 06:06 40.72365 -73.69334 1816 ft 152 kts 213°
2026-05-05 06:06 40.71467 -73.70038 1635 ft 143 kts 214°
2026-05-05 06:06 40.70665 -73.70669 1421 ft 124 kts 213°
2026-05-05 06:06 40.69963 -73.71221 1278 ft 112 kts 213°
2026-05-05 06:07 40.69296 -73.71744 1161 ft 114 kts 213°
2026-05-05 06:07 40.68699 -73.72212 1012 ft 113 kts 211°
2026-05-05 06:07 40.68007 -73.72751 831 ft 119 kts 211°
2026-05-05 06:07 40.67270 -73.73333 677 ft 125 kts 210°
2026-05-05 06:08 40.66511 -73.73930 501 ft 126 kts 209°
2026-05-05 06:08 40.65766 -73.74510 337 ft 124 kts 210°
2026-05-05 06:08 40.65008 -73.75108 180 ft 128 kts 208°
2026-05-05 06:08 40.64247 -73.75704 44 ft 125 kts 209°
2026-05-05 06:09 40.63585 -73.76219 26 ft 90 kts 211°
2026-05-05 06:09 40.63187 -73.76530 29 ft 53 kts 211°
2026-05-05 06:09 40.62981 -73.76768 28 ft 31 kts 235°
2026-05-05 06:09 40.62927 -73.76953 29 ft 18 kts 281°
2026-05-05 06:10 40.62972 -73.77078 27 ft 11 kts 301°
2026-05-05 06:10 40.63008 -73.77153 29 ft 10 kts 302°
2026-05-05 06:10 40.63047 -73.77239 32 ft 13 kts 300°
2026-05-05 06:10 40.63087 -73.77333 32 ft 9 kts 299°
2026-05-05 06:11 40.63111 -73.77389 33 ft 3 kts 299°
2026-05-05 06:11 40.63122 -73.77415 33 ft 2 kts 299°
2026-05-05 06:11 40.63145 -73.77462 34 ft 8 kts 305°
2026-05-05 06:11 40.63174 -73.77517 34 ft 6 kts 304°
2026-05-05 06:12 40.63196 -73.77563 34 ft 6 kts 302°
2026-05-05 06:12 40.63244 -73.77666 32 ft 20 kts 301°
2026-05-05 06:12 40.63315 -73.77824 31 ft 20 kts 300°
2026-05-05 06:12 40.63379 -73.77969 28 ft 18 kts 299°
2026-05-05 06:13 40.63440 -73.78110 29 ft 18 kts 300°
2026-05-05 06:13 40.63503 -73.78248 29 ft 18 kts 301°
2026-05-05 06:13 40.63565 -73.78386 32 ft 18 kts 301°
2026-05-05 06:13 40.63626 -73.78521 34 ft 16 kts 301°
2026-05-05 06:14 40.63696 -73.78674 33 ft 23 kts 301°
2026-05-05 06:14 40.63774 -73.78848 31 ft 23 kts 301°
2026-05-05 06:14 40.63855 -73.79027 28 ft 23 kts 301°
2026-05-05 06:14 40.63933 -73.79198 29 ft 23 kts 301°
2026-05-05 06:15 40.64013 -73.79376 25 ft 23 kts 301°
2026-05-05 06:15 40.64117 -73.79504 27 ft 21 kts 347°
2026-05-05 06:15 40.64262 -73.79499 29 ft 21 kts
2026-05-05 06:15 40.64407 -73.79492 29 ft 21 kts 357°
2026-05-05 06:16 40.64552 -73.79510 28 ft 21 kts 349°
2026-05-05 06:16 40.64665 -73.79586 28 ft 14 kts 325°
2026-05-05 06:16 40.64744 -73.79613 28 ft 12 kts 37°
2026-05-05 06:16 40.64788 -73.79519 28 ft 12 kts 61°
2026-05-05 06:17 40.64783 -73.79440 28 ft 9 kts 139°
2026-05-05 06:17 40.64759 -73.79421 28 ft 1 kts 153°
2026-05-05 06:17 40.64758 -73.79421 28 ft 0 kts 153°
2026-05-05 06:18 40.64758 -73.79422 28 ft 0 kts 150°